,,PressureMeas_1m,,PRMeasQMR101_1,,RHStat155_1m_1,,SRMeasQMS101R_1m,,TAStat155_1m_1,,GenWind_1,,GenWind_1,
2017-07-17, 07:00:06,VALID,917.015,VALID,0.0,VALID,92.928,VALID,144.924,VALID,19.943,VALID,230.0,VALID,0.0,
2017-07-17, 07:01:06,VALID,917.028,VALID,0.0,VALID,92.472,VALID,150.595,VALID,20.006,VALID,230.0,VALID,0.0,
2017-07-17, 07:02:06,VALID,917.06,VALID,0.0,VALID,92.208,VALID,157.61,VALID,20.122,VALID,232.0,VALID,0.0,
2017-07-17, 07:03:06,VALID,917.07,VALID,0.0,VALID,91.517,VALID,162.049,VALID,20.306,VALID,233.0,VALID,0.0,
2017-07-17, 07:04:06,VALID,917.084,VALID,0.0,VALID,90.748,VALID,163.924,VALID,20.437,VALID,235.0,VALID,0.0,
2017-07-17, 07:05:06,VALID,917.119,VALID,0.0,VALID,90.446,VALID,165.448,VALID,20.656,VALID,240.0,VALID,0.0,
2017-07-17, 07:06:06,VALID,917.154,VALID,0.0,VALID,89.548,VALID,170.565,VALID,20.922,VALID,240.0,VALID,0.0,
2017-07-17, 07:07:06,VALID,917.174,VALID,0.0,VALID,87.946,VALID,155.403,VALID,21.137,VALID,339.0,VALID,0.161,
2017-07-17, 07:08:06,VALID,917.202,VALID,0.0,VALID,86.688,VALID,127.478,VALID,21.227,VALID,348.0,VALID,0.199,
2017-07-17, 07:09:06,VALID,917.201,VALID,0.0,VALID,86.54,VALID,145.715,VALID,21.299,VALID,345.0,VALID,0.306,
2017-07-17, 07:10:06,VALID,917.201,VALID,0.0,VALID,85.296,VALID,88.8,VALID,21.281,VALID,7.0,VALID,0.311,
2017-07-17, 07:11:06,VALID,917.193,VALID,0.0,VALID,84.733,VALID,82.113,VALID,21.257,VALID,357.0,VALID,0.554,
2017-07-17, 07:12:06,VALID,917.211,VALID,0.0,VALID,84.77,VALID,101.544,VALID,21.144,VALID,360.0,VALID,0.337,
2017-07-17, 07:13:06,VALID,917.202,VALID,0.0,VALID,86.375,VALID,82.48,VALID,21.068,VALID,1.0,VALID,0.216,
2017-07-17, 07:14:06,VALID,917.215,VALID,0.0,VALID,87.51,VALID,60.068,VALID,21.068,VALID,1.0,VALID,0.105,
2017-07-17, 07:15:06,VALID,917.225,VALID,0.0,VALID,88.54,VALID,60.443,VALID,21.093,VALID,1.0,VALID,0.0,
2017-07-17, 07:16:06,VALID,917.237,VALID,0.0,VALID,88.623,VALID,59.741,VALID,21.104,VALID,360.0,VALID,0.0,
2017-07-17, 07:17:06,VALID,917.242,VALID,0.0,VALID,86.878,VALID,60.806,VALID,21.069,VALID,359.0,VALID,0.0,
2017-07-17, 07:18:06,VALID,917.246,VALID,0.0,VALID,87.516,VALID,60.593,VALID,21.037,VALID,359.0,VALID,0.0,
2017-07-17, 07:19:06,VALID,917.29,VALID,0.0,VALID,87.302,VALID,60.785,VALID,21.026,VALID,324.0,VALID,0.0,
2017-07-17, 07:20:06,VALID,917.306,VALID,0.0,VALID,86.698,VALID,63.252,VALID,20.917,VALID,274.0,VALID,0.0,
2017-07-17, 07:21:06,VALID,917.329,VALID,0.0,VALID,87.011,VALID,76.962,VALID,20.848,VALID,272.0,VALID,0.0,
2017-07-17, 07:22:06,VALID,917.349,VALID,0.0,VALID,87.116,VALID,64.754,VALID,20.839,VALID,272.0,VALID,0.0,
2017-07-17, 07:23:06,VALID,917.362,VALID,0.0,VALID,87.133,VALID,66.179,VALID,20.823,VALID,272.0,VALID,0.0,
2017-07-17, 07:24:06,VALID,917.382,VALID,0.0,VALID,87.709,VALID,129.551,VALID,20.798,VALID,272.0,VALID,0.0,
2017-07-17, 07:25:06,VALID,917.42,VALID,0.0,VALID,87.674,VALID,113.345,VALID,20.852,VALID,272.0,VALID,0.0,
2017-07-17, 07:26:06,VALID,917.446,VALID,0.0,VALID,87.266,VALID,193.849,VALID,20.928,VALID,272.0,VALID,0.0,
2017-07-17, 07:27:06,VALID,917.478,VALID,0.0,VALID,87.305,VALID,203.251,VALID,21.005,VALID,272.0,VALID,0.0,
2017-07-17, 07:28:06,VALID,917.496,VALID,0.0,VALID,87.745,VALID,204.708,VALID,21.182,VALID,272.0,VALID,0.0,
2017-07-17, 07:29:06,VALID,917.526,VALID,0.0,VALID,87.353,VALID,208.411,VALID,21.372,VALID,272.0,VALID,0.0,
2017-07-17, 07:30:06,VALID,917.548,VALID,0.0,VALID,87.15,VALID,211.835,VALID,21.598,VALID,272.0,VALID,0.0,
2017-07-17, 07:31:06,VALID,917.56,VALID,0.0,VALID,86.691,VALID,215.456,VALID,21.905,VALID,277.0,VALID,0.0,
2017-07-17, 07:32:06,VALID,917.577,VALID,0.0,VALID,84.558,VALID,218.786,VALID,22.185,VALID,28.0,VALID,0.158,
2017-07-17, 07:33:06,VALID,917.596,VALID,0.0,VALID,81.124,VALID,221.733,VALID,22.347,VALID,29.0,VALID,0.186,
2017-07-17, 07:34:06,VALID,917.6,VALID,0.0,VALID,80.243,VALID,224.935,VALID,22.323,VALID,27.0,VALID,0.045,
2017-07-17, 07:35:06,VALID,917.607,VALID,0.0,VALID,81.307,VALID,228.482,VALID,22.37,VALID,3.0,VALID,0.198,
2017-07-17, 07:36:06,VALID,917.612,VALID,0.0,VALID,82.135,VALID,231.796,VALID,22.428,VALID,351.0,VALID,0.068,
2017-07-17, 07:37:06,VALID,917.636,VALID,0.0,VALID,81.572,VALID,235.389,VALID,22.533,VALID,333.0,VALID,0.077,
2017-07-17, 07:38:06,VALID,917.655,VALID,0.0,VALID,81.118,VALID,239.609,VALID,22.576,VALID,320.0,VALID,0.051,
2017-07-17, 07:39:06,VALID,917.663,VALID,0.0,VALID,81.411,VALID,242.446,VALID,22.585,VALID,318.0,VALID,0.052,
2017-07-17, 07:40:06,VALID,917.702,VALID,0.0,VALID,80.63,VALID,245.061,VALID,22.428,VALID,288.0,VALID,0.093,
2017-07-17, 07:41:06,VALID,917.715,VALID,0.0,VALID,82.016,VALID,247.297,VALID,22.206,VALID,270.0,VALID,0.052,
2017-07-17, 07:42:06,VALID,917.724,VALID,0.0,VALID,82.263,VALID,250.615,VALID,21.995,VALID,276.0,VALID,0.095,
2017-07-17, 07:43:06,VALID,917.729,VALID,0.0,VALID,83.461,VALID,253.587,VALID,21.841,VALID,266.0,VALID,0.036,
2017-07-17, 07:44:06,VALID,917.741,VALID,0.0,VALID,84.292,VALID,256.975,VALID,21.695,VALID,259.0,VALID,0.015,
2017-07-17, 07:45:06,VALID,917.742,VALID,0.0,VALID,83.883,VALID,259.874,VALID,21.652,VALID,270.0,VALID,0.076,
2017-07-17, 07:46:06,VALID,917.762,VALID,0.0,VALID,84.474,VALID,262.226,VALID,21.667,VALID,297.0,VALID,0.346,
2017-07-17, 07:47:06,VALID,917.768,VALID,0.0,VALID,84.584,VALID,265.484,VALID,21.631,VALID,304.0,VALID,0.308,
2017-07-17, 07:48:06,VALID,917.765,VALID,0.0,VALID,83.981,VALID,268.461,VALID,21.656,VALID,256.0,VALID,0.055,
2017-07-17, 07:49:06,VALID,917.745,VALID,0.0,VALID,84.263,VALID,271.368,VALID,21.669,VALID,256.0,VALID,0.0,
2017-07-17, 07:50:06,VALID,917.743,VALID,0.0,VALID,83.795,VALID,273.993,VALID,21.822,VALID,285.0,VALID,0.08,
2017-07-17, 07:51:06,VALID,917.745,VALID,0.0,VALID,83.889,VALID,278.476,VALID,21.992,VALID,357.0,VALID,0.276,
2017-07-17, 07:52:06,VALID,917.765,VALID,0.0,VALID,83.388,VALID,282.736,VALID,22.181,VALID,40.0,VALID,0.214,
2017-07-17, 07:53:06,VALID,917.768,VALID,0.0,VALID,82.532,VALID,286.387,VALID,22.413,VALID,59.0,VALID,0.192,
2017-07-17, 07:54:06,VALID,917.77,VALID,0.0,VALID,81.709,VALID,290.177,VALID,22.545,VALID,6.0,VALID,0.29,
2017-07-17, 07:55:06,VALID,917.772,VALID,0.0,VALID,81.611,VALID,293.924,VALID,22.554,VALID,353.0,VALID,0.409,
2017-07-17, 07:56:06,VALID,917.766,VALID,0.0,VALID,81.496,VALID,297.234,VALID,22.614,VALID,323.0,VALID,0.27,
2017-07-17, 07:57:06,VALID,917.751,VALID,0.0,VALID,80.353,VALID,300.582,VALID,22.449,VALID,276.0,VALID,0.218,
2017-07-17, 07:58:06,VALID,917.743,VALID,0.0,VALID,81.736,VALID,304.398,VALID,22.373,VALID,243.0,VALID,0.013,
2017-07-17, 07:59:06,VALID,917.747,VALID,0.0,VALID,81.345,VALID,307.836,VALID,22.502,VALID,279.0,VALID,0.041,
2017-07-17, 08:00:06,VALID,917.752,VALID,0.0,VALID,81.257,VALID,311.134,VALID,22.631,VALID,321.0,VALID,0.022,
2017-07-17, 08:01:06,VALID,917.76,VALID,0.0,VALID,80.738,VALID,313.594,VALID,22.744,VALID,333.0,VALID,0.43,
2017-07-17, 08:02:06,VALID,917.773,VALID,0.0,VALID,80.569,VALID,317.126,VALID,22.769,VALID,347.0,VALID,0.873,
2017-07-17, 08:03:06,VALID,917.797,VALID,0.0,VALID,80.787,VALID,321.023,VALID,22.672,VALID,5.0,VALID,0.646,
2017-07-17, 08:04:06,VALID,917.81,VALID,0.0,VALID,81.195,VALID,324.626,VALID,22.626,VALID,20.0,VALID,0.321,
2017-07-17, 08:05:06,VALID,917.819,VALID,0.0,VALID,81.426,VALID,328.14,VALID,22.716,VALID,19.0,VALID,1.103,
2017-07-17, 08:06:06,VALID,917.822,VALID,0.0,VALID,80.284,VALID,331.472,VALID,22.601,VALID,21.0,VALID,0.857,
2017-07-17, 08:07:06,VALID,917.826,VALID,0.0,VALID,80.964,VALID,333.901,VALID,22.408,VALID,26.0,VALID,1.405,
2017-07-17, 08:08:06,VALID,917.851,VALID,0.0,VALID,82.123,VALID,336.547,VALID,22.355,VALID,39.0,VALID,0.811,
2017-07-17, 08:09:06,VALID,917.863,VALID,0.0,VALID,82.891,VALID,339.473,VALID,22.542,VALID,3.0,VALID,0.883,
2017-07-17, 08:10:06,VALID,917.861,VALID,0.0,VALID,82.194,VALID,343.004,VALID,22.599,VALID,12.0,VALID,0.977,
2017-07-17, 08:11:06,VALID,917.858,VALID,0.0,VALID,81.523,VALID,346.849,VALID,22.59,VALID,28.0,VALID,0.905,
2017-07-17, 08:12:06,VALID,917.833,VALID,0.0,VALID,81.827,VALID,350.472,VALID,22.51,VALID,6.0,VALID,1.14,
2017-07-17, 08:13:06,VALID,917.82,VALID,0.0,VALID,82.395,VALID,353.096,VALID,22.455,VALID,27.0,VALID,0.872,
2017-07-17, 08:14:06,VALID,917.815,VALID,0.0,VALID,82.257,VALID,356.22,VALID,22.61,VALID,340.0,VALID,0.314,
2017-07-17, 08:15:06,VALID,917.811,VALID,0.0,VALID,81.631,VALID,359.138,VALID,22.583,VALID,353.0,VALID,0.769,
2017-07-17, 08:16:06,VALID,917.817,VALID,0.0,VALID,82.275,VALID,362.894,VALID,22.567,VALID,24.0,VALID,1.424,
2017-07-17, 08:17:06,VALID,917.838,VALID,0.0,VALID,81.786,VALID,366.588,VALID,22.609,VALID,13.0,VALID,1.112,
2017-07-17, 08:18:06,VALID,917.854,VALID,0.0,VALID,81.013,VALID,370.33,VALID,22.491,VALID,6.0,VALID,0.962,
2017-07-17, 08:19:06,VALID,917.877,VALID,0.0,VALID,81.272,VALID,374.618,VALID,22.555,VALID,4.0,VALID,0.412,
2017-07-17, 08:20:06,VALID,917.911,VALID,0.0,VALID,79.859,VALID,378.509,VALID,22.709,VALID,22.0,VALID,1.008,
2017-07-17, 08:21:06,VALID,917.922,VALID,0.0,VALID,78.634,VALID,381.708,VALID,22.649,VALID,16.0,VALID,1.254,
2017-07-17, 08:22:06,VALID,917.945,VALID,0.0,VALID,79.568,VALID,383.968,VALID,22.533,VALID,348.0,VALID,0.88,
2017-07-17, 08:23:06,VALID,917.946,VALID,0.0,VALID,79.837,VALID,387.788,VALID,22.565,VALID,4.0,VALID,0.973,
2017-07-17, 08:24:06,VALID,917.963,VALID,0.0,VALID,80.698,VALID,391.126,VALID,22.508,VALID,21.0,VALID,1.055,
2017-07-17, 08:25:06,VALID,917.963,VALID,0.0,VALID,80.391,VALID,394.309,VALID,22.523,VALID,32.0,VALID,1.122,
2017-07-17, 08:26:06,VALID,917.979,VALID,0.0,VALID,80.868,VALID,398.711,VALID,22.597,VALID,359.0,VALID,1.057,
2017-07-17, 08:27:06,VALID,917.996,VALID,0.0,VALID,80.527,VALID,402.674,VALID,22.755,VALID,342.0,VALID,0.434,
2017-07-17, 08:28:06,VALID,918.002,VALID,0.0,VALID,80.088,VALID,406.024,VALID,22.762,VALID,359.0,VALID,1.036,
2017-07-17, 08:29:06,VALID,918.001,VALID,0.0,VALID,79.011,VALID,408.681,VALID,22.697,VALID,4.0,VALID,0.719,
2017-07-17, 08:30:06,VALID,918.001,VALID,0.0,VALID,79.795,VALID,413.013,VALID,22.713,VALID,18.0,VALID,1.121,
2017-07-17, 08:31:06,VALID,917.999,VALID,0.0,VALID,79.102,VALID,416.97,VALID,22.687,VALID,31.0,VALID,0.673,
2017-07-17, 08:32:06,VALID,918.014,VALID,0.0,VALID,79.736,VALID,420.719,VALID,22.767,VALID,49.0,VALID,0.763,
2017-07-17, 08:33:06,VALID,918.023,VALID,0.0,VALID,80.569,VALID,425.013,VALID,22.8,VALID,27.0,VALID,0.815,
2017-07-17, 08:34:06,VALID,918.036,VALID,0.0,VALID,79.568,VALID,429.017,VALID,22.882,VALID,15.0,VALID,1.536,
2017-07-17, 08:35:06,VALID,918.04,VALID,0.0,VALID,80.761,VALID,431.725,VALID,22.738,VALID,12.0,VALID,1.243,
2017-07-17, 08:36:06,VALID,918.05,VALID,0.0,VALID,79.983,VALID,434.207,VALID,22.73,VALID,334.0,VALID,0.563,
2017-07-17, 08:37:06,VALID,918.05,VALID,0.0,VALID,78.387,VALID,438.702,VALID,22.707,VALID,352.0,VALID,0.539,
2017-07-17, 08:38:06,VALID,918.047,VALID,0.0,VALID,80.218,VALID,442.05,VALID,22.842,VALID,13.0,VALID,0.54,
2017-07-17, 08:39:06,VALID,918.038,VALID,0.0,VALID,78.273,VALID,444.492,VALID,23.131,VALID,354.0,VALID,0.087,
2017-07-17, 08:40:06,VALID,918.022,VALID,0.0,VALID,78.316,VALID,450.314,VALID,23.286,VALID,295.0,VALID,0.412,
2017-07-17, 08:41:06,VALID,918.01,VALID,0.0,VALID,77.985,VALID,454.166,VALID,23.386,VALID,57.0,VALID,1.254,
2017-07-17, 08:42:06,VALID,918.015,VALID,0.0,VALID,77.898,VALID,458.606,VALID,23.358,VALID,6.0,VALID,1.015,
2017-07-17, 08:43:06,VALID,918.016,VALID,0.0,VALID,77.043,VALID,460.778,VALID,23.34,VALID,307.0,VALID,0.693,
2017-07-17, 08:44:06,VALID,918.006,VALID,0.0,VALID,77.407,VALID,463.406,VALID,23.172,VALID,293.0,VALID,0.3,
2017-07-17, 08:45:06,VALID,917.982,VALID,0.0,VALID,77.869,VALID,468.31,VALID,23.242,VALID,20.0,VALID,1.018,
2017-07-17, 08:46:06,VALID,917.959,VALID,0.0,VALID,78.993,VALID,473.89,VALID,23.234,VALID,20.0,VALID,1.217,
2017-07-17, 08:47:06,VALID,917.956,VALID,0.0,VALID,77.92,VALID,478.403,VALID,23.293,VALID,21.0,VALID,1.407,
2017-07-17, 08:48:06,VALID,917.961,VALID,0.0,VALID,77.195,VALID,481.022,VALID,23.278,VALID,16.0,VALID,1.094,
2017-07-17, 08:49:06,VALID,917.95,VALID,0.0,VALID,77.033,VALID,484.611,VALID,23.121,VALID,33.0,VALID,0.95,
2017-07-17, 08:50:06,VALID,917.954,VALID,0.0,VALID,78.972,VALID,488.932,VALID,23.174,VALID,20.0,VALID,1.192,
2017-07-17, 08:51:06,VALID,917.944,VALID,0.0,VALID,77.75,VALID,494.858,VALID,23.227,VALID,23.0,VALID,0.948,
2017-07-17, 08:52:06,VALID,917.957,VALID,0.0,VALID,78.686,VALID,503.667,VALID,23.321,VALID,28.0,VALID,1.234,
2017-07-17, 08:53:06,VALID,917.951,VALID,0.0,VALID,77.91,VALID,514.083,VALID,23.515,VALID,26.0,VALID,0.573,
2017-07-17, 08:54:06,VALID,917.97,VALID,0.0,VALID,76.487,VALID,423.797,VALID,23.783,VALID,268.0,VALID,0.184,
2017-07-17, 08:55:06,VALID,917.983,VALID,0.0,VALID,75.446,VALID,404.039,VALID,23.661,VALID,294.0,VALID,0.737,
2017-07-17, 08:56:06,VALID,917.99,VALID,0.0,VALID,75.184,VALID,489.779,VALID,23.308,VALID,284.0,VALID,0.436,
2017-07-17, 08:57:06,VALID,917.983,VALID,0.0,VALID,77.029,VALID,381.851,VALID,23.077,VALID,288.0,VALID,0.406,
2017-07-17, 08:58:06,VALID,917.976,VALID,0.0,VALID,79.475,VALID,476.647,VALID,23.089,VALID,337.0,VALID,0.215,
2017-07-17, 08:59:06,VALID,917.984,VALID,0.0,VALID,78.305,VALID,588.118,VALID,23.383,VALID,16.0,VALID,0.149,
2017-07-17, 09:00:06,VALID,917.976,VALID,0.0,VALID,77.438,VALID,446.056,VALID,23.71,VALID,247.0,VALID,0.023,
2017-07-17, 09:01:06,VALID,917.955,VALID,0.0,VALID,76.743,VALID,385.061,VALID,23.864,VALID,240.0,VALID,0.229,
2017-07-17, 09:02:06,VALID,917.937,VALID,0.0,VALID,75.562,VALID,521.014,VALID,23.814,VALID,249.0,VALID,0.278,
2017-07-17, 09:03:06,VALID,917.922,VALID,0.0,VALID,76.079,VALID,498.335,VALID,23.726,VALID,234.0,VALID,0.011,
2017-07-17, 09:04:06,VALID,917.915,VALID,0.0,VALID,76.242,VALID,445.566,VALID,23.875,VALID,255.0,VALID,0.061,
2017-07-17, 09:05:06,VALID,917.937,VALID,0.0,VALID,76.029,VALID,581.907,VALID,24.119,VALID,61.0,VALID,0.107,
2017-07-17, 09:06:06,VALID,917.942,VALID,0.0,VALID,74.13,VALID,517.406,VALID,24.372,VALID,299.0,VALID,0.814,
2017-07-17, 09:07:06,VALID,917.962,VALID,0.0,VALID,71.825,VALID,576.646,VALID,24.141,VALID,247.0,VALID,0.673,
2017-07-17, 09:08:06,VALID,917.985,VALID,0.0,VALID,74.187,VALID,554.466,VALID,23.833,VALID,264.0,VALID,0.418,
2017-07-17, 09:09:06,VALID,918.008,VALID,0.0,VALID,76.873,VALID,425.606,VALID,23.655,VALID,248.0,VALID,0.233,
2017-07-17, 09:10:06,VALID,918.014,VALID,0.0,VALID,77.344,VALID,422.849,VALID,23.507,VALID,261.0,VALID,0.143,
2017-07-17, 09:11:06,VALID,918.045,VALID,0.0,VALID,77.091,VALID,618.297,VALID,23.62,VALID,293.0,VALID,0.664,
2017-07-17, 09:12:06,VALID,918.033,VALID,0.0,VALID,74.579,VALID,472.159,VALID,23.588,VALID,235.0,VALID,0.307,
2017-07-17, 09:13:06,VALID,918.038,VALID,0.0,VALID,75.851,VALID,599.763,VALID,23.6,VALID,231.0,VALID,0.377,
2017-07-17, 09:14:06,VALID,918.058,VALID,0.0,VALID,75.908,VALID,600.206,VALID,23.656,VALID,274.0,VALID,0.579,
2017-07-17, 09:15:06,VALID,918.075,VALID,0.0,VALID,76.276,VALID,629.728,VALID,23.718,VALID,351.0,VALID,0.304,
2017-07-17, 09:16:06,VALID,918.086,VALID,0.0,VALID,74.683,VALID,411.252,VALID,23.942,VALID,310.0,VALID,0.192,
2017-07-17, 09:17:06,VALID,918.101,VALID,0.0,VALID,74.599,VALID,349.663,VALID,24.053,VALID,303.0,VALID,0.29,
2017-07-17, 09:18:06,VALID,918.11,VALID,0.0,VALID,73.647,VALID,270.827,VALID,24.04,VALID,358.0,VALID,0.745,
2017-07-17, 09:19:06,VALID,918.12,VALID,0.0,VALID,73.257,VALID,170.981,VALID,23.791,VALID,300.0,VALID,0.625,
2017-07-17, 09:20:06,VALID,918.138,VALID,0.0,VALID,74.923,VALID,339.82,VALID,23.522,VALID,294.0,VALID,0.475,
2017-07-17, 09:21:06,VALID,918.152,VALID,0.0,VALID,75.927,VALID,632.655,VALID,23.421,VALID,219.0,VALID,0.119,
2017-07-17, 09:22:06,VALID,918.185,VALID,0.0,VALID,76.767,VALID,607.468,VALID,23.482,VALID,332.0,VALID,0.334,
2017-07-17, 09:23:06,VALID,918.199,VALID,0.0,VALID,75.636,VALID,516.347,VALID,23.615,VALID,280.0,VALID,0.944,
2017-07-17, 09:24:06,VALID,918.199,VALID,0.0,VALID,75.151,VALID,620.107,VALID,23.508,VALID,355.0,VALID,1.106,
2017-07-17, 09:25:06,VALID,918.19,VALID,0.0,VALID,76.285,VALID,607.381,VALID,23.653,VALID,2.0,VALID,1.42,
2017-07-17, 09:26:06,VALID,918.189,VALID,0.0,VALID,75.589,VALID,634.508,VALID,23.794,VALID,6.0,VALID,1.663,
2017-07-17, 09:27:06,VALID,918.185,VALID,0.0,VALID,74.667,VALID,621.335,VALID,23.762,VALID,7.0,VALID,1.99,
2017-07-17, 09:28:06,VALID,918.177,VALID,0.0,VALID,75.402,VALID,616.614,VALID,23.787,VALID,356.0,VALID,1.198,
2017-07-17, 09:29:06,VALID,918.17,VALID,0.0,VALID,74.478,VALID,619.462,VALID,23.905,VALID,10.0,VALID,1.141,
2017-07-17, 09:30:06,VALID,918.173,VALID,0.0,VALID,74.916,VALID,622.733,VALID,24.009,VALID,358.0,VALID,0.923,
2017-07-17, 09:31:06,VALID,918.177,VALID,0.0,VALID,73.392,VALID,628.918,VALID,24.252,VALID,348.0,VALID,0.782,
2017-07-17, 09:32:06,VALID,918.185,VALID,0.0,VALID,71.981,VALID,640.865,VALID,24.389,VALID,318.0,VALID,0.628,
2017-07-17, 09:33:06,VALID,918.182,VALID,0.0,VALID,71.043,VALID,654.159,VALID,24.284,VALID,298.0,VALID,0.455,
2017-07-17, 09:34:06,VALID,918.183,VALID,0.0,VALID,73.426,VALID,661.246,VALID,24.326,VALID,16.0,VALID,0.877,
2017-07-17, 09:35:06,VALID,918.19,VALID,0.0,VALID,71.874,VALID,663.586,VALID,24.399,VALID,327.0,VALID,0.925,
2017-07-17, 09:36:06,VALID,918.231,VALID,0.0,VALID,72.759,VALID,665.726,VALID,24.35,VALID,314.0,VALID,0.667,
2017-07-17, 09:37:06,VALID,918.23,VALID,0.0,VALID,72.507,VALID,665.234,VALID,24.235,VALID,12.0,VALID,1.021,
2017-07-17, 09:38:06,VALID,918.244,VALID,0.0,VALID,73.944,VALID,671.204,VALID,24.319,VALID,8.0,VALID,1.656,
2017-07-17, 09:39:06,VALID,918.256,VALID,0.0,VALID,72.665,VALID,677.742,VALID,24.583,VALID,40.0,VALID,0.977,
2017-07-17, 09:40:06,VALID,918.263,VALID,0.0,VALID,72.621,VALID,682.172,VALID,24.831,VALID,28.0,VALID,0.939,
2017-07-17, 09:41:06,VALID,918.279,VALID,0.0,VALID,71.103,VALID,693.573,VALID,25.03,VALID,20.0,VALID,0.686,
2017-07-17, 09:42:06,VALID,918.258,VALID,0.0,VALID,70.842,VALID,683.32,VALID,25.173,VALID,349.0,VALID,0.87,
2017-07-17, 09:43:06,VALID,918.268,VALID,0.0,VALID,70.851,VALID,688.235,VALID,25.022,VALID,324.0,VALID,0.991,
2017-07-17, 09:44:06,VALID,918.292,VALID,0.0,VALID,71.389,VALID,702.053,VALID,24.998,VALID,239.0,VALID,0.675,
2017-07-17, 09:45:06,VALID,918.303,VALID,0.0,VALID,72.62,VALID,725.833,VALID,25.048,VALID,342.0,VALID,0.603,
2017-07-17, 09:46:06,VALID,918.293,VALID,0.0,VALID,69.859,VALID,742.491,VALID,25.219,VALID,322.0,VALID,0.214,
2017-07-17, 09:47:06,VALID,918.274,VALID,0.0,VALID,70.462,VALID,760.414,VALID,25.443,VALID,5.0,VALID,0.451,
2017-07-17, 09:48:06,VALID,918.276,VALID,0.0,VALID,69.08,VALID,753.916,VALID,25.624,VALID,1.0,VALID,0.615,
2017-07-17, 09:49:06,VALID,918.268,VALID,0.0,VALID,68.634,VALID,641.897,VALID,25.647,VALID,272.0,VALID,0.542,
2017-07-17, 09:50:06,VALID,918.246,VALID,0.0,VALID,69.074,VALID,877.237,VALID,25.475,VALID,3.0,VALID,0.945,
2017-07-17, 09:51:06,VALID,918.23,VALID,0.0,VALID,69.687,VALID,824.571,VALID,25.39,VALID,331.0,VALID,1.413,
2017-07-17, 09:52:06,VALID,918.233,VALID,0.0,VALID,70.508,VALID,315.238,VALID,25.148,VALID,355.0,VALID,1.628,
2017-07-17, 09:53:06,VALID,918.246,VALID,0.0,VALID,70.639,VALID,277.803,VALID,24.965,VALID,324.0,VALID,0.775,
2017-07-17, 09:54:06,VALID,918.237,VALID,0.0,VALID,71.016,VALID,269.63,VALID,24.704,VALID,340.0,VALID,0.535,
2017-07-17, 09:55:06,VALID,918.239,VALID,0.0,VALID,73.494,VALID,262.532,VALID,24.582,VALID,12.0,VALID,1.572,
2017-07-17, 09:56:06,VALID,918.243,VALID,0.0,VALID,71.514,VALID,257.322,VALID,24.433,VALID,13.0,VALID,0.831,
2017-07-17, 09:57:06,VALID,918.248,VALID,0.0,VALID,73.029,VALID,314.454,VALID,24.303,VALID,1.0,VALID,0.81,
2017-07-17, 09:58:06,VALID,918.226,VALID,0.0,VALID,72.962,VALID,626.568,VALID,24.272,VALID,12.0,VALID,1.173,
2017-07-17, 09:59:06,VALID,918.236,VALID,0.0,VALID,73.203,VALID,331.999,VALID,24.369,VALID,16.0,VALID,0.927,
2017-07-17, 10:00:06,VALID,918.23,VALID,0.0,VALID,74.3,VALID,485.079,VALID,24.537,VALID,19.0,VALID,0.782,
2017-07-17, 10:01:06,VALID,918.23,VALID,0.0,VALID,72.686,VALID,574.169,VALID,24.627,VALID,8.0,VALID,0.726,
2017-07-17, 10:02:06,VALID,918.222,VALID,0.0,VALID,71.613,VALID,388.539,VALID,24.706,VALID,327.0,VALID,0.968,
2017-07-17, 10:03:06,VALID,918.211,VALID,0.0,VALID,71.191,VALID,493.933,VALID,24.727,VALID,24.0,VALID,0.759,
2017-07-17, 10:04:06,VALID,918.227,VALID,0.0,VALID,71.36,VALID,401.885,VALID,24.646,VALID,284.0,VALID,1.213,
2017-07-17, 10:05:06,VALID,918.211,VALID,0.0,VALID,72.134,VALID,575.827,VALID,24.345,VALID,298.0,VALID,0.29,
2017-07-17, 10:06:06,VALID,918.217,VALID,0.0,VALID,72.926,VALID,974.662,VALID,24.366,VALID,281.0,VALID,0.793,
2017-07-17, 10:07:06,VALID,918.218,VALID,0.0,VALID,70.989,VALID,566.534,VALID,24.424,VALID,246.0,VALID,0.881,
2017-07-17, 10:08:06,VALID,918.226,VALID,0.0,VALID,73.726,VALID,718.927,VALID,24.63,VALID,21.0,VALID,1.05,
2017-07-17, 10:09:06,VALID,918.25,VALID,0.0,VALID,71.537,VALID,411.967,VALID,25.038,VALID,20.0,VALID,0.889,
2017-07-17, 10:10:06,VALID,918.241,VALID,0.0,VALID,70.226,VALID,380.561,VALID,25.2,VALID,21.0,VALID,1.18,
2017-07-17, 10:11:06,VALID,918.221,VALID,0.0,VALID,69.66,VALID,511.649,VALID,25.141,VALID,18.0,VALID,1.352,
2017-07-17, 10:12:06,VALID,918.215,VALID,0.0,VALID,70.614,VALID,446.0,VALID,25.006,VALID,46.0,VALID,0.492,
2017-07-17, 10:13:06,VALID,918.198,VALID,0.0,VALID,70.671,VALID,428.398,VALID,25.122,VALID,297.0,VALID,0.395,
2017-07-17, 10:14:06,VALID,918.178,VALID,0.0,VALID,67.896,VALID,392.638,VALID,25.153,VALID,315.0,VALID,0.131,
2017-07-17, 10:15:06,VALID,918.161,VALID,0.0,VALID,69.531,VALID,379.691,VALID,25.151,VALID,294.0,VALID,0.481,
2017-07-17, 10:16:06,VALID,918.16,VALID,0.0,VALID,71.498,VALID,323.077,VALID,25.095,VALID,308.0,VALID,0.279,
2017-07-17, 10:17:06,VALID,918.164,VALID,0.0,VALID,70.889,VALID,269.439,VALID,25.093,VALID,278.0,VALID,0.121,
2017-07-17, 10:18:06,VALID,918.16,VALID,0.0,VALID,71.875,VALID,255.177,VALID,25.127,VALID,74.0,VALID,0.635,
2017-07-17, 10:19:06,VALID,918.169,VALID,0.0,VALID,71.408,VALID,258.833,VALID,25.233,VALID,160.0,VALID,0.16,
2017-07-17, 10:20:06,VALID,918.143,VALID,0.0,VALID,71.501,VALID,275.358,VALID,25.233,VALID,164.0,VALID,0.78,
2017-07-17, 10:21:06,VALID,918.15,VALID,0.0,VALID,71.203,VALID,290.675,VALID,24.999,VALID,294.0,VALID,0.718,
2017-07-17, 10:22:06,VALID,918.159,VALID,0.0,VALID,73.64,VALID,329.681,VALID,24.828,VALID,20.0,VALID,0.809,
2017-07-17, 10:23:06,VALID,918.177,VALID,0.0,VALID,73.065,VALID,600.13,VALID,24.862,VALID,61.0,VALID,0.107,
2017-07-17, 10:24:06,VALID,918.176,VALID,0.0,VALID,71.983,VALID,359.776,VALID,24.886,VALID,33.0,VALID,0.63,
2017-07-17, 10:25:06,VALID,918.179,VALID,0.0,VALID,71.518,VALID,324.197,VALID,24.773,VALID,11.0,VALID,2.263,
2017-07-17, 10:26:06,VALID,918.208,VALID,0.0,VALID,71.709,VALID,317.328,VALID,24.651,VALID,327.0,VALID,0.471,
2017-07-17, 10:27:06,VALID,918.21,VALID,0.0,VALID,71.793,VALID,298.953,VALID,24.659,VALID,86.0,VALID,0.165,
2017-07-17, 10:28:06,VALID,918.223,VALID,0.0,VALID,72.084,VALID,279.234,VALID,24.753,VALID,194.0,VALID,0.313,
2017-07-17, 10:29:06,VALID,918.214,VALID,0.0,VALID,72.15,VALID,286.927,VALID,24.834,VALID,270.0,VALID,0.365,
2017-07-17, 10:30:06,VALID,918.219,VALID,0.0,VALID,72.208,VALID,313.69,VALID,24.747,VALID,286.0,VALID,0.4,
2017-07-17, 10:31:06,VALID,918.213,VALID,0.0,VALID,70.82,VALID,354.637,VALID,24.621,VALID,330.0,VALID,0.872,
2017-07-17, 10:32:06,VALID,918.234,VALID,0.0,VALID,70.829,VALID,555.259,VALID,24.411,VALID,253.0,VALID,0.993,
2017-07-17, 10:33:06,VALID,918.243,VALID,0.0,VALID,73.131,VALID,545.862,VALID,24.226,VALID,246.0,VALID,0.748,
2017-07-17, 10:34:06,VALID,918.275,VALID,0.0,VALID,74.214,VALID,279.443,VALID,24.183,VALID,270.0,VALID,1.507,
2017-07-17, 10:35:06,VALID,918.273,VALID,0.0,VALID,71.994,VALID,401.222,VALID,23.963,VALID,265.0,VALID,1.509,
2017-07-17, 10:36:06,VALID,918.259,VALID,0.0,VALID,73.381,VALID,795.3,VALID,23.796,VALID,267.0,VALID,0.969,